Location: Newark
(34.9471°N, 136.1778°E)
Time: 09:49:53
(UTC+00:00)

METEOR M2 - Pass Details

Date: 28 February 2020
Orbit: 818 x 828 km, 98.5° (Epoch: 05 April)

Event Time Altitude Azimuth Distance (km) Brightness Sun altitude
Exits shadow 09:30:58 - 119° (ESE) 2,747 ? -9.3°
Reaches altitude 10° 09:32:03 10° 112° (ESE) 2,426 ? -9.5°
Maximum altitude 09:35:53 20° 66° (ENE) 1,812 ? -10.3°
Drops below altitude 10° 09:39:43 10° 20° (NNE) 2,436 ? -11.1°
Sets 09:42:38 0° 5° (N) 3,374 ? -11.7°
